Location: Sweetwater (historical)
(38.4624°N, 119.1749°W)
Time: 13:38:42
(UTC+00:00)

Cosmos 2058 - Pass Details

Date: 13 August 2020
Orbit: 563 x 582 km, 82.5° (Epoch: 20 September)

Event Time Altitude Azimuth Distance (km) Brightness Sun altitude
Rises 12:21:18 0° 355° (N) 2,797 6.7 -9.6°
Reaches altitude 10° 12:23:31 10° 358° (N) 1,897 5.9 -9.2°
Maximum altitude 12:27:41 70° 81° (E) 621 3.3 -8.4°
Drops below altitude 10° 12:31:51 10° 166° (SSE) 1,891 5.4 -7.7°
Sets 12:34:02 0° 169° (SSE) 2,787 6.3 -7.3°
